MOST

Last updated on Tue Jul 08 2025 00:03:30 GMT+0000 (Coordinated Universal Time)

1 27843U 03031D 25188.60702363 .00000054 00000+0 44784-4 0 9991 2 27843 98.7052 196.1312 0010189 161.0450 199.1108 14.21215203141765
UTC large
Height (km)
Speed (km/s)
/
Latitude / Longitude
Inclination (degrees)
Orbital Period (minutes)
Azimuth
Elevation
Range (km)
Doppler Factor

Next 0 passes for location: London (51.5072 / 0.1276)

Sorry there are no passes over London.